Snowfall_Accumulation
0.0 0.0 0.0 0.0 0.0 0.0 0.0 0.0 0.0 0.0 0.0 0.0 0.0 0.0 0.0 0.0 0.0 0.0 0.0 0.0 0.0 0.0 0.0 0.0 0.0 0.0 0.0 0.0 0.0 0.0 0.0 0.0 0.0 0.0 0.0 0.0 0.0 0.0 0.0 0.0 0.0 0.0 0.0
0.0 0.0 0.0 0.0 0.0 0.0 0.0 0.0 0.0 0.0 0.0 0.0 0.0 0.0 0.0 0.0 0.0 0.0 0.0 0.0 0.0 0.0 0.0 0.0 0.0 0.0 0.0 0.0 0.0 0.0 0.0 0.0 0.0 0.0 0.0 0.0 0.0 0.0 0.0 0.0 0.0 0.0 0.0
0.0 0.0 0.0 0.0 0.0 0.0 0.0 0.0 0.0 0.0 0.0 0.0 0.0 0.0 0.0 0.0 0.0 0.0 0.0 0.0 0.0 0.0 0.0 0.0 0.0 0.0 0.0 0.0 0.0 0.0 0.0 0.0 0.0 0.0 0.0 0.0 0.0 0.0 0.0 0.0 0.0 0.0 0.0
0.0 0.0 0.0 0.0 0.0 0.0 0.0 0.0 0.0 0.0 0.0 0.0 0.0 0.0 0.0 0.0 0.0 0.0 0.0 0.0 0.0 0.0 0.0 0.0 0.0 0.0 0.0 0.0 0.0 0.0 0.0 0.0 0.0 0.0 0.0 0.0 0.0 0.0 0.0 0.0 0.0 0.0 0.0
0.0 0.0 0.0 0.0 0.0 0.0 0.0 0.0 0.0 0.0 0.0 0.0 0.0 0.0 0.0 0.0 0.0 0.0 0.0 0.0 0.0 0.0 0.0 0.0 0.0 nan nan nan 0.0 0.0 0.0 0.0 0.0 0.0 0.0 0.0 0.0 0.0 0.0 0.0 0.0 0.0 0.0
0.0 0.0 0.0 0.0 0.0 0.0 0.0 0.0 0.0 0.0 0.0 0.0 0.0 0.0 0.0 0.0 nan nan 0.0 0.0 0.0 0.0 0.0 0.0 0.0 0.0 0.0 nan nan nan nan 0.0 0.0 0.1 0.1 0.0 0.0 0.0 0.0 0.0 0.0 0.2 0.2
0.0 0.0 0.0 0.0 0.0 0.0 0.0 0.0 0.0 0.0 0.0 0.0 0.0 0.0 0.0 0.0 nan nan nan 0.0 0.0 0.0 0.0 0.0 0.0 0.0 nan 0.0 nan nan nan nan nan 0.0 0.0 0.0 0.0 0.0 0.0 0.0 0.0 0.2 0.1
0.0 0.0 0.0 0.0 0.0 0.0 0.0 0.0 0.0 0.0 0.0 0.0 0.0 0.0 0.0 0.0 nan nan nan 0.0 0.0 0.0 0.0 0.0 0.0 0.0 0.0 0.0 0.0 0.0 0.0 0.0 0.0 0.0 0.0 0.0 0.0 0.0 0.0 0.0 0.0 0.0 0.0
0.0 0.0 0.0 0.0 0.0 0.0 0.0 0.0 0.0 0.0 0.0 0.0 0.0 0.0 0.0 0.0 nan nan 0.0 0.0 0.0 0.0 0.0 0.0 0.0 0.0 nan nan 0.0 0.0 0.0 0.0 nan nan nan nan nan nan nan 0.1 0.3 0.5 0.3
0.0 0.0 0.0 0.0 0.0 0.0 0.0 0.0 0.0 0.0 0.0 0.0 0.0 0.0 nan 0.0 nan nan nan 0.0 0.0 0.0 0.0 0.0 nan 0.0 nan nan 0.0 0.0 0.0 0.0 0.0 0.0 0.0 0.0 nan nan nan 0.0 0.3 1.7 1.1
0.0 0.0 0.0 0.0 0.0 0.0 0.0 0.0 0.0 0.0 0.0 0.0 0.0 0.0 0.0 0.0 0.0 nan nan 0.0 0.0 0.0 0.0 0.0 0.0 nan nan nan nan 0.0 0.0 0.0 0.0 0.0 0.2 0.3 0.2 0.1 0.1 0.2 0.1 1.5 2.9
0.0 0.0 0.0 0.0 0.0 0.0 0.0 0.0 0.0 0.0 0.0 0.0 0.0 0.0 0.0 0.0 nan nan nan nan nan 0.0 0.0 0.0 0.0 nan nan nan nan nan nan nan 0.0 0.0 0.2 0.3 0.5 0.5 0.5 0.4 0.1 0.2 0.3
0.0 0.0 0.0 0.0 0.0 0.0 0.0 0.0 0.0 0.0 0.0 0.0 0.0 0.0 0.0 0.0 0.0 nan nan nan nan 0.0 0.0 0.0 nan nan nan nan nan nan nan 0.0 0.0 0.4 0.5 0.9 0.9 1.0 0.7 1.0 0.3 0.3 1.1
0.0 0.0 0.0 0.0 0.0 0.0 0.0 0.0 0.0 0.0 0.0 0.0 0.0 0.0 0.0 0.0 0.0 0.0 0.0 0.0 nan 0.0 nan 0.1 nan 0.0 nan nan 0.0 0.0 0.0 0.0 0.2 0.5 0.6 0.5 0.7 2.1 2.1 1.8 4.5 4.2 6.1
0.0 0.0 0.0 0.0 0.0 0.0 0.0 0.0 0.0 0.0 0.0 0.0 0.0 0.0 0.0 0.0 0.0 0.0 0.0 0.0 0.0 0.0 nan 0.0 0.0 0.0 0.1 0.0 0.0 0.0 0.0 0.0 0.5 0.5 1.0 1.5 1.4 2.3 3.2 3.2 5.8 6.7 10.3
0.0 0.0 0.0 0.0 0.0 0.0 0.0 0.0 nan nan nan nan nan 0.0 0.0 nan nan nan nan nan nan nan 0.0 0.0 0.1 0.2 0.2 0.0 0.0 0.0 0.1 0.6 0.6 1.2 1.8 2.3 3.9 5.1 5.9 6.8 7.5 9.2 11.3
0.0 0.0 0.0 0.0 0.0 0.0 0.0 0.0 0.0 0.0 nan nan nan nan nan nan nan nan nan nan nan nan 0.0 0.4 0.4 0.4 0.4 0.5 0.6 1.0 2.2 1.0 1.2 4.0 3.9 4.5 5.2 6.4 7.1 7.7 8.0 7.5 7.3
0.0 nan 0.0 0.0 0.0 0.0 0.0 0.0 0.0 0.0 0.0 0.0 nan nan nan nan nan nan nan nan 0.0 nan 0.4 0.6 1.0 1.0 1.2 1.9 2.2 3.0 2.8 2.7 3.5 4.0 5.0 6.2 7.9 9.8 10.1 8.8 7.3 9.7 7.5
0.0 0.0 0.0 0.0 0.0 0.0 0.0 0.0 0.0 0.0 0.0 0.0 0.0 0.0 nan nan nan nan nan 0.0 0.2 0.5 0.5 0.7 0.5 0.9 1.3 1.7 1.7 2.2 2.5 4.5 5.9 8.1 6.8 8.6 8.2 10.7 9.0 6.9 6.1 4.0 nan
0.0 nan 0.0 0.0 0.0 0.0 0.0 0.1 0.1 0.1 0.1 0.0 0.0 0.0 0.1 0.2 0.5 0.2 0.2 0.3 0.3 0.3 0.3 0.4 0.4 0.7 1.1 1.7 2.6 3.1 4.5 4.9 5.5 5.6 6.7 7.5 7.5 7.9 9.0 6.7 4.9 7.4 4.4
0.0 0.0 nan 0.0 0.0 0.1 0.1 0.1 0.1 0.2 0.2 0.2 0.1 0.1 nan 0.4 0.4 0.3 0.3 0.4 0.4 0.5 0.6 0.6 0.7 1.0 1.4 2.0 2.9 4.3 6.0 5.8 5.6 7.2 7.1 6.6 7.3 10.1 4.4 4.7 4.6 4.2 5.5
0.0 0.0 0.0 0.0 0.1 0.2 0.2 0.2 0.2 0.3 0.3 0.3 0.1 0.2 nan 0.1 0.5 0.6 0.6 0.7 0.6 0.6 0.6 0.9 1.5 1.6 2.2 4.2 5.1 6.2 6.4 7.3 7.3 8.3 7.7 6.7 6.5 5.7 5.4 5.7 5.2 5.3 5.9
0.0 0.0 0.0 0.0 0.1 nan 0.3 0.3 0.5 0.4 0.3 0.3 0.2 0.2 0.3 0.3 0.3 0.7 0.9 0.6 0.8 1.0 0.8 1.0 1.6 2.2 1.6 3.1 4.5 6.9 11.0 8.5 7.1 7.7 9.4 9.9 8.6 8.4 8.2 7.9 5.7 6.7 5.4
0.0 0.0 0.0 0.0 0.0 0.1 0.1 0.2 0.2 nan 0.4 0.4 0.3 0.2 0.1 0.1 0.1 0.3 0.5 0.5 0.7 0.7 0.9 1.2 1.5 2.1 2.6 4.1 4.6 6.1 7.8 9.4 7.8 8.7 10.7 12.2 9.6 6.7 7.0 7.2 6.0 6.0 5.9
0.0 0.0 0.0 0.0 0.0 0.0 0.1 0.2 0.3 0.3 0.6 0.6 0.6 0.6 0.4 0.5 0.5 0.9 0.6 1.0 1.3 1.7 1.2 1.4 2.1 3.1 3.7 5.4 6.2 6.8 6.1 nan 5.7 2.3 5.9 6.8 8.3 7.9 7.8 7.3 5.6 5.5 5.5
0.0 0.0 0.0 0.1 0.2 0.2 0.3 0.8 1.1 1.1 1.7 1.2 1.7 2.0 1.6 1.9 1.7 2.2 2.0 2.0 2.6 2.1 2.5 2.5 3.2 5.4 6.6 6.1 6.5 3.3 nan nan 2.5 nan 4.5 6.5 6.3 5.7 5.5 5.9 5.5 5.3 5.2
Water_Equivalent
0.00 0.00 0.00 0.00 0.00 0.00 0.00 0.00 0.00 0.00 0.00 0.00 0.00 0.00 0.00 0.00 0.00 0.00 0.00 0.00 0.00 0.00 0.00 0.00 0.00 0.00 0.00 0.00 0.00 0.00 0.00 0.00 0.00 0.00 0.00 0.00 0.00 0.00 0.00 0.00 0.00 0.00 0.00
0.00 0.00 0.00 0.00 0.00 0.00 0.00 0.00 0.00 0.00 0.00 0.00 0.00 0.00 0.00 0.00 0.00 0.00 0.00 0.00 0.00 0.00 0.00 0.00 0.00 0.00 0.00 0.00 0.00 0.00 0.00 0.00 0.00 0.00 0.00 0.00 0.00 0.00 0.00 0.00 0.00 0.00 0.00
0.00 0.00 0.00 0.00 0.00 0.00 0.00 0.00 0.00 0.00 0.00 0.00 0.00 0.00 0.00 0.00 0.00 0.00 0.00 0.00 0.00 0.00 0.00 0.00 0.00 0.00 0.00 0.00 0.00 0.00 0.00 0.00 0.00 0.00 0.00 0.00 0.00 0.00 0.00 0.00 0.00 0.00 0.00
0.00 0.00 0.00 0.00 0.00 0.00 0.00 0.00 0.00 0.00 0.00 0.00 0.00 0.00 0.00 0.00 0.00 0.00 0.00 0.00 0.00 0.00 0.00 0.00 0.00 0.00 0.00 0.00 0.00 0.00 0.00 0.00 0.00 0.00 0.00 0.00 0.00 0.00 0.00 0.00 0.00 0.00 0.00
0.00 0.00 0.00 0.00 0.00 0.00 0.00 0.00 0.00 0.00 0.00 0.00 0.00 0.00 0.00 0.00 0.00 0.00 0.00 0.00 0.00 0.00 0.00 0.00 0.00 nan nan nan 0.00 0.00 0.00 0.00 0.00 0.00 0.00 0.00 0.01 0.00 0.00 0.00 0.00 0.00 0.00
0.00 0.00 0.00 0.00 0.00 0.00 0.00 0.00 0.00 0.00 0.00 0.00 0.00 0.00 0.00 0.00 nan nan 0.00 0.00 0.00 0.00 0.00 0.00 0.00 0.00 0.00 nan nan nan nan 0.00 0.00 0.03 0.04 0.00 0.00 0.00 0.00 0.00 0.00 0.07 0.08
0.00 0.00 0.00 0.00 0.00 0.00 0.00 0.00 0.00 0.00 0.00 0.00 0.00 0.00 0.00 0.00 nan nan nan 0.00 0.00 0.00 0.00 0.00 0.00 0.00 nan 0.00 nan nan nan nan nan 0.00 0.00 0.00 0.00 0.00 0.00 0.01 0.00 0.07 0.02
0.00 0.00 0.00 0.00 0.00 0.00 0.00 0.00 0.00 0.00 0.00 0.00 0.00 0.00 0.00 0.00 nan nan nan 0.00 0.00 0.00 0.00 0.00 0.00 0.00 0.00 0.00 0.00 0.00 0.00 0.00 0.00 0.00 0.00 0.00 0.00 0.00 0.00 0.00 0.00 0.00 0.00
0.00 0.00 0.00 0.00 0.00 0.00 0.00 0.00 0.00 0.00 0.00 0.00 0.00 0.00 0.00 0.00 nan nan 0.00 0.00 0.00 0.00 0.00 0.00 0.00 0.00 nan nan 0.00 0.00 0.00 0.00 nan nan nan nan nan nan nan 0.03 0.14 0.20 0.12
0.00 0.00 0.00 0.00 0.00 0.00 0.00 0.00 0.00 0.00 0.00 0.02 0.00 0.00 nan 0.00 nan nan nan 0.00 0.00 0.00 0.00 0.00 nan 0.00 nan nan 0.00 0.00 0.00 0.00 0.00 0.00 0.00 0.00 nan nan nan 0.00 0.13 0.65 0.41
0.00 0.00 0.00 0.00 0.00 0.00 0.00 0.00 0.00 0.00 0.00 0.00 0.00 0.00 0.00 0.00 0.00 nan nan 0.00 0.00 0.00 0.00 0.00 0.00 nan nan nan nan 0.00 0.00 0.00 0.00 0.00 0.04 0.08 0.06 0.04 0.03 0.04 0.03 0.57 1.04
0.00 0.00 0.00 0.00 0.00 0.00 0.00 0.00 0.00 0.00 0.00 0.00 0.00 0.00 0.00 0.00 nan nan nan nan nan 0.00 0.00 0.00 0.00 nan nan nan nan nan nan nan 0.00 0.00 0.06 0.12 0.18 0.21 0.19 0.15 0.02 0.08 0.13
0.00 0.00 0.00 0.00 0.00 0.00 0.00 0.00 0.00 0.00 0.00 0.00 0.00 0.00 0.00 0.00 0.00 nan nan nan nan 0.00 0.00 0.00 nan nan nan nan nan nan nan 0.01 0.01 0.15 0.21 0.35 0.34 0.38 0.24 0.28 0.10 0.11 0.33
0.00 0.00 0.00 0.00 0.00 0.00 0.00 0.00 0.00 0.00 0.00 0.00 0.00 0.00 0.00 0.00 0.00 0.00 0.00 0.00 nan 0.00 nan 0.05 nan 0.00 nan nan 0.00 0.00 0.01 0.00 0.07 0.15 0.20 0.18 0.25 0.58 0.54 0.50 1.05 1.02 1.33
0.00 0.00 0.00 0.00 0.00 0.00 0.00 0.00 0.00 0.00 0.00 0.00 0.00 0.00 0.00 0.00 0.00 0.00 0.00 0.00 0.00 0.00 nan 0.00 0.00 0.00 0.04 0.00 0.00 0.00 0.00 0.00 0.15 0.15 0.28 0.37 0.38 0.58 0.73 0.80 1.28 1.45 1.73
0.00 0.00 0.00 0.00 0.00 0.00 0.00 0.00 nan nan nan nan nan 0.00 0.00 nan nan nan nan nan nan nan 0.00 0.00 0.05 0.07 0.07 0.00 0.01 0.01 0.03 0.19 0.19 0.36 0.48 0.58 0.87 1.05 1.17 1.40 1.59 1.59 1.67
0.00 0.00 0.00 0.00 0.00 0.00 0.00 0.00 0.00 0.00 nan nan nan nan nan nan nan nan nan nan nan nan 0.00 0.13 0.14 0.14 0.14 0.16 0.19 0.30 0.60 0.30 0.38 1.12 1.01 1.06 1.15 1.28 1.42 1.39 1.37 1.28 1.17
0.00 nan 0.00 0.00 0.00 0.00 0.00 0.00 0.00 0.00 0.00 0.00 nan nan nan nan nan nan nan nan 0.00 nan 0.14 0.20 0.30 0.30 0.34 0.54 0.60 0.83 0.76 0.73 0.92 1.04 1.20 1.37 1.62 1.90 1.84 1.51 1.23 1.43 1.20
0.00 0.00 0.00 0.00 0.00 0.00 0.00 0.01 0.00 0.01 0.00 0.00 0.00 0.00 nan nan nan nan nan 0.00 0.08 0.15 0.15 0.21 0.17 0.28 0.40 0.51 0.52 0.65 0.64 1.17 1.57 1.91 1.50 1.74 1.69 1.98 1.56 1.19 1.02 0.69 nan
0.00 nan 0.00 0.00 0.00 0.00 0.01 0.02 0.02 0.04 0.04 0.01 0.01 0.00 0.03 0.08 0.17 0.09 0.08 0.10 0.11 0.10 0.10 0.14 0.15 0.24 0.37 0.56 0.79 0.90 1.25 1.31 1.36 1.31 1.44 1.61 1.48 1.44 1.47 1.08 0.76 1.17 0.72
0.00 0.00 nan 0.00 0.01 0.02 0.02 0.04 0.04 0.06 0.07 0.06 0.03 0.03 nan 0.13 0.14 0.11 0.10 0.12 0.14 0.16 0.20 0.18 0.24 0.35 0.47 0.63 0.87 1.15 1.53 1.45 1.37 1.73 1.67 1.42 1.40 1.52 0.73 0.77 0.75 0.71 0.93
0.00 0.00 0.00 0.00 0.02 0.06 0.05 0.07 0.07 0.08 0.07 0.08 0.04 0.08 nan 0.02 0.14 0.17 0.17 0.19 0.18 0.18 0.17 0.28 0.44 0.48 0.67 1.22 1.40 1.64 1.50 1.63 1.67 1.87 1.70 1.42 1.24 0.95 0.88 0.91 0.83 0.91 1.00
0.00 0.00 0.00 0.00 0.02 nan 0.10 0.08 0.12 0.11 0.08 0.07 0.06 0.06 0.08 0.09 0.09 0.21 0.22 0.16 0.23 0.28 0.22 0.28 0.47 0.64 0.51 0.89 1.32 1.89 2.63 1.78 1.63 1.74 1.72 1.46 1.29 1.25 1.28 1.27 0.96 1.06 0.86
0.00 0.00 0.00 0.00 0.00 0.02 0.04 0.05 0.06 nan 0.12 0.11 0.09 0.05 0.04 0.03 0.04 0.07 0.14 0.14 0.20 0.19 0.27 0.34 0.44 0.59 0.71 1.11 1.16 1.52 1.88 2.12 1.87 1.95 2.26 2.24 1.54 1.13 1.11 1.13 0.95 0.89 0.92
0.00 0.00 0.00 0.00 0.01 0.01 0.02 0.05 0.08 0.07 0.12 0.12 0.12 0.13 0.10 0.12 0.13 0.21 0.15 0.26 0.34 0.41 0.29 0.32 0.54 0.74 0.84 1.19 1.38 1.50 1.36 nan 1.37 0.76 1.21 1.24 1.34 1.20 1.20 1.18 0.87 0.88 0.84
0.01 0.01 0.01 0.03 0.07 0.06 0.08 0.18 0.27 0.29 0.40 0.28 0.37 0.41 0.32 0.36 0.31 0.48 0.42 0.42 0.52 0.43 0.47 0.51 0.60 0.87 1.08 1.32 1.46 0.95 nan nan 0.57 nan 0.86 1.13 1.01 0.92 0.90 0.92 0.84 0.85 0.80
SL_Ratio
nan nan nan nan nan nan nan nan nan nan nan nan nan nan nan nan nan nan nan nan nan nan nan nan nan nan nan nan nan nan nan nan nan nan nan nan nan nan nan nan nan nan nan
nan nan nan nan nan nan nan nan nan nan nan nan nan nan nan nan nan nan nan nan nan nan nan nan nan nan nan nan nan nan nan nan nan nan nan nan nan nan nan nan nan nan nan
nan nan nan nan nan nan nan nan nan nan nan nan nan nan nan nan nan nan nan nan nan nan nan nan nan nan nan nan nan nan nan nan nan nan nan nan nan nan nan nan nan nan nan
nan nan nan nan nan nan nan nan nan nan nan nan nan nan nan nan nan nan nan nan nan nan nan nan nan nan nan nan nan nan nan nan nan nan nan nan nan nan nan nan nan nan nan
nan nan nan nan nan nan nan nan nan nan nan nan nan nan nan nan nan nan nan nan nan nan nan nan nan nan nan nan nan nan nan nan nan nan nan nan 2.5 nan nan nan nan nan nan
nan nan nan nan nan nan nan nan nan nan nan nan nan nan nan nan nan nan nan nan nan nan nan nan nan nan nan nan nan nan nan nan nan 2.6 2.5 5.0 nan nan nan nan 3.3 2.5 2.5
nan nan nan nan nan nan nan nan nan nan nan nan nan nan nan nan nan nan nan 1.7 2.5 nan nan nan nan nan nan nan nan nan nan nan nan nan nan nan nan nan nan 2.7 2.7 2.5 2.5
nan nan nan nan nan nan nan nan nan nan nan nan nan nan nan nan nan nan nan nan nan nan nan nan nan nan nan nan nan nan nan nan nan nan nan nan nan nan nan 2.9 2.2 nan 2.5
nan nan nan nan nan nan nan nan nan nan nan nan nan nan nan nan nan nan nan nan nan nan nan nan nan nan nan nan nan 2.0 nan nan nan nan nan nan nan nan nan 2.5 2.5 2.5 2.5
nan nan nan nan nan nan nan nan nan nan nan 2.6 nan nan nan nan nan nan nan nan nan nan nan nan nan nan nan nan nan nan nan nan 0.0 2.0 nan nan nan nan nan nan 2.5 2.6 2.6
nan nan nan nan nan nan nan nan nan nan nan nan nan nan nan nan nan nan nan nan nan nan nan nan nan nan nan nan nan 0.0 2.0 nan nan 2.5 4.4 4.4 4.3 3.9 4.9 4.2 4.1 2.7 2.8
nan nan nan nan nan nan nan nan nan nan nan nan nan nan nan nan nan nan nan nan nan nan nan nan nan nan nan nan nan nan nan nan nan nan 2.5 2.5 2.7 2.6 2.5 2.5 2.7 2.5 2.5
nan nan nan nan nan nan nan nan nan nan nan nan nan nan nan nan nan nan nan nan nan nan nan nan nan nan nan nan nan nan nan 2.7 2.6 3.1 2.6 2.6 2.7 2.6 3.0 3.4 3.4 3.1 3.3
nan nan nan nan nan nan nan nan nan nan nan nan nan nan nan nan nan nan nan nan nan nan nan 2.5 nan nan nan nan nan nan 2.4 nan 3.2 3.4 3.3 2.8 2.9 3.6 3.9 3.6 4.3 4.2 4.6
nan nan nan nan nan nan nan nan nan nan nan nan nan nan nan nan nan nan nan nan nan nan nan nan nan nan 2.6 nan 10.0 nan nan 5.0 3.3 3.3 3.6 4.0 3.8 3.9 4.3 4.0 4.5 4.6 6.0
nan nan nan nan nan nan nan nan nan nan nan nan nan nan nan nan nan nan nan nan nan nan nan nan 2.9 2.9 3.1 4.0 3.3 3.3 2.7 3.2 3.3 3.4 3.7 4.0 4.5 4.9 5.1 4.9 4.7 5.8 6.8
nan nan nan nan nan nan nan nan 0.0 nan nan nan nan nan nan nan nan nan nan nan nan nan nan 3.1 3.2 3.2 3.2 3.3 3.3 3.3 3.7 3.2 3.2 3.6 3.8 4.2 4.5 5.0 5.0 5.6 5.8 5.9 6.3
nan nan nan nan nan nan nan nan nan nan 3.0 2.0 nan nan nan nan nan nan nan nan 6.0 nan 2.9 3.1 3.5 3.5 3.5 3.6 3.6 3.7 3.7 3.8 3.8 3.9 4.2 4.5 4.9 5.2 5.5 5.8 6.0 6.8 6.2
nan nan nan nan nan nan 2.7 3.1 0.0 3.0 2.0 3.3 0.0 nan nan nan nan nan nan nan 2.9 3.1 3.0 3.2 3.0 3.1 3.2 3.3 3.3 3.4 3.9 3.8 3.8 4.2 4.6 5.0 4.9 5.4 5.8 5.8 5.9 5.8 nan
nan nan nan 0.0 0.0 3.1 2.9 3.3 3.3 3.4 3.4 2.9 3.1 2.9 3.1 2.6 2.9 2.7 2.6 2.7 2.9 3.0 3.0 3.0 2.9 2.8 2.9 3.1 3.3 3.4 3.6 3.7 4.0 4.3 4.6 4.7 5.1 5.5 6.1 6.2 6.4 6.3 6.1
nan nan nan 0.0 2.9 2.9 2.9 3.3 3.3 3.3 3.4 3.5 3.2 2.8 nan 2.8 3.2 3.0 2.9 3.0 3.1 3.2 3.2 3.2 2.9 2.9 3.0 3.2 3.4 3.8 3.9 4.0 4.1 4.1 4.3 4.6 5.2 6.6 6.1 6.1 6.1 5.9 5.9
nan nan nan nan 3.2 3.4 3.1 3.0 3.1 3.6 3.7 3.7 3.5 3.3 nan 3.0 3.5 3.6 3.6 3.5 3.5 3.4 3.2 3.4 3.3 3.3 3.2 3.4 3.6 3.8 4.3 4.5 4.4 4.4 4.5 4.7 5.3 6.0 6.1 6.2 6.2 5.8 5.9
nan 2.5 nan nan 3.3 nan 3.1 3.3 4.2 4.2 4.0 3.9 3.7 3.7 3.6 3.6 3.7 3.6 3.9 3.4 3.5 3.5 3.5 3.4 3.4 3.5 3.3 3.5 3.4 3.7 4.2 4.8 4.3 4.4 5.5 6.8 6.7 6.7 6.4 6.3 6.0 6.3 6.3
nan 6.7 0.0 5.0 nan 3.4 3.6 3.8 3.9 nan 3.4 3.9 3.7 3.3 3.3 3.6 3.7 4.2 3.3 3.2 3.7 3.5 3.3 3.5 3.4 3.6 3.6 3.7 4.0 4.0 4.2 4.4 4.2 4.5 4.7 5.4 6.3 6.0 6.3 6.4 6.3 6.7 6.4
nan nan 0.0 3.3 3.7 3.3 3.9 3.2 3.8 4.4 4.8 4.7 4.9 4.6 3.7 3.9 4.2 4.2 3.8 3.9 3.9 4.2 4.2 4.3 3.9 4.2 4.4 4.5 4.5 4.5 4.4 nan 4.1 3.0 4.9 5.5 6.2 6.6 6.5 6.2 6.4 6.2 6.5
2.9 3.0 3.0 2.9 3.3 3.4 3.7 4.3 4.1 3.9 4.3 4.3 4.8 4.8 4.9 5.3 5.3 4.6 4.7 4.9 5.1 4.9 5.4 4.8 5.3 6.2 6.1 4.6 4.5 3.5 nan nan 4.3 nan 5.2 5.7 6.2 6.2 6.1 6.4 6.6 6.3 6.4